Home > Weather > Tabatinga > Past weeks

Flag for Brazil Past Weather in Tabatinga, Amazonas, Brazil — Yesterday and Last 2 Weeks

Now
82 °F

Partly sunny.


Feels Like: 92 °F
Forecast: N/A
Wind: No wind

Location: Leticia / Vasquez Cobo

Current Time: May 29, 2016 at 6:05:11 PM

Latest Report: May 29, 2016 at 5:00 PM


Visibility: N/A

Pressure: 29.84 "Hg

Humidity: 89%

Dew Point: 79 °F

Location of TabatingaLocation

Past Weather in Tabatinga — Graph

°F

Tabatinga Temperature Yesterday

Maximum temperature yesterday: 90 °F (at 12:00 PM)
Minimum temperature yesterday: 75 °F (at 4:00 AM)
Average temperature yesterday: 82 °F

High & Low Weather Summary for the Past Weeks

 TemperatureHumidityPressure
High91 °F (May 17, 3:00 PM)100% (May 15, 12:00 AM)30.06 "Hg (May 15, 12:00 AM)
Low72 °F (May 25, 2:00 AM)15% (May 19, 3:00 PM)29.76 "Hg (May 17, 4:00 PM)
Average80 °F88%29.91 "Hg
* Reported May 14 4:00 PM — May 29 4:00 PM, Tabatinga, Weather by CustomWeather, © 2016

Note: Actual official high and low records may vary slightly from our data, if they occured in-between our weather recording intervals... More about our weather records

Advertising

Tabatinga Weather History for the Previous 24 Hours

Scroll right to see more
 ConditionsComfort  
Time TempWeatherWind HumidityBarometerVisibility
4:00 PM
Sun, May 29
84 °FBroken clouds.No wind79%29.84 "HgN/A
3:00 PM81 °FBroken clouds.No wind89%29.85 "HgN/A
2:00 PM79 °FBroken clouds.No wind89%29.88 "HgN/A
1:00 PM77 °FBroken clouds.3 mph94%29.91 "Hg4 mi
12:00 PM86 °FBroken clouds.3 mph79%29.94 "HgN/A
11:00 AM84 °FBroken clouds.2 mph79%29.96 "HgN/A
10:00 AM82 °FBroken clouds.No wind84%29.98 "HgN/A
9:00 AM79 °FBroken clouds.No wind94%29.97 "HgN/A
8:00 AM79 °FScattered clouds.3 mph94%29.97 "HgN/A
7:00 AM79 °FScattered clouds.No wind94%29.95 "HgN/A
6:00 AM77 °FScattered clouds.No wind94%29.94 "HgN/A
5:00 AM77 °FScattered showers. Partly cloudy.No wind94%29.93 "HgN/A
4:00 AM77 °FPartly cloudy.5 mph94%29.92 "HgN/A
3:00 AM75 °FPartly cloudy.No wind100%29.91 "HgN/A
2:00 AM77 °FPassing clouds.No wind94%29.92 "HgN/A
1:00 AM77 °FPassing clouds.No wind94%29.93 "HgN/A
12:00 AM77 °FPassing clouds.No wind94%29.94 "HgN/A
11:00 PM
Sat, May 28
77 °FPassing clouds.No wind94%29.96 "HgN/A
10:00 PM79 °FPassing clouds.No wind94%29.95 "HgN/A
9:00 PM79 °FPassing clouds.5 mph100%29.92 "HgN/A
8:00 PM81 °FPassing clouds.No wind94%29.90 "HgN/A
7:00 PM82 °FPassing clouds.No wind94%29.87 "HgN/A
6:00 PM82 °FPassing clouds.No wind89%29.85 "HgN/A
Weather by CustomWeather, © 2016

See weather overviewHow to use our weather pages